Weather History for Broken Bow, NE

Change the Weather History Date:

Sunday, December 16, 2012

  Actual Average Record
Temperature  
Mean Temperature 33 °F 25 °F  
Max Temperature 42 °F 37 °F 74 °F (1962)
Min Temperature 24 °F 13 °F -23 °F (1914)
Degree Days  
Heating Degree Days 32 40  
Month to date heating degree days 504 621  
Cooling Degree Days 0 0  
Month to date cooling degree days 0 0  
Year to date cooling degree days 1077 768  
Moisture  
Dew Point 21 °F    
Average Humidity 66    
Maximum Humidity 92    
Minimum Humidity 39    
Precipitation  
Precipitation T in 0.01 in 0.30 in (1940)
Sea Level Pressure  
Sea Level Pressure 29.78 in    
Wind  
Wind Speed 5 mph (West)    
Max Wind Speed 12 mph    
Max Gust Speed 17 mph    
Visibility 10 miles    
Events Snow    
T = Trace of Precipitation, MM = Missing Value Source: NWS Daily Summary

Daily Weather History Graph

Daily Weather History Graph

Search for Another Location

Airport:

Trip Planner

Search our weather history database for the weather conditions in past years. The results will help you decide how hot, cold, wet, or windy it might be!

Date:

Astronomy

Dec. 16, 2012 Rise Set
Actual Time 7:58 AM CST 5:10 PM CST
Civil Twilight 7:27 AM CST 5:41 PM CST
Nautical Twilight 6:52 AM CST 6:16 PM CST
Astronomical Twilight 6:18 AM CST 6:50 PM CST
Moon 10:31 AM CST (12/16) 9:28 PM CST (12/16)
Length of Visible Light 10h 14m
Length of Day
9h 11m
Waxing Crescent, 16% of the Moon is Illuminated
Dec 16
Waxing Crescent
Dec 19
First Quarter
Dec 28
Full
Jan 4
Last Quarter
Jan 11
New

Hourly Weather History & Observations

Time (CST) Temp. Windchill Dew Point Humidity Pressure Visibility Wind Dir Wind Speed Gust Speed Precip Events Conditions
12:53 AM 28.9 °F 21.1 °F 19.9 °F 69% 29.79 in 10.0 mi NNW 8.1 mph - N/A   Overcast
1:53 AM 28.0 °F 20.0 °F 19.9 °F 72% 29.78 in 10.0 mi NNW 8.1 mph - N/A   Scattered Clouds
2:53 AM 28.0 °F 22.8 °F 21.0 °F 75% 29.80 in 10.0 mi WNW 4.6 mph - N/A   Overcast
3:53 AM 28.0 °F 22.8 °F 21.0 °F 75% 29.80 in 10.0 mi WNW 4.6 mph - N/A   Overcast
4:53 AM 27.0 °F 21.6 °F 21.0 °F 78% 29.80 in 10.0 mi NNW 4.6 mph - N/A   Overcast
5:53 AM 28.0 °F 22.8 °F 21.0 °F 75% 29.80 in 10.0 mi NW 4.6 mph - N/A   Overcast
6:53 AM 28.0 °F 19.3 °F 19.9 °F 72% 29.79 in 10.0 mi NNE 9.2 mph - N/A   Overcast
7:53 AM 28.0 °F - 19.9 °F 72% 29.81 in 10.0 mi Calm Calm - N/A   Overcast
8:53 AM 27.0 °F - 21.0 °F 78% 29.83 in 10.0 mi Calm Calm - N/A   Mostly Cloudy
9:53 AM 28.0 °F 20.0 °F 21.0 °F 75% 29.83 in 10.0 mi NW 8.1 mph - N/A   Clear
10:53 AM 30.9 °F - 19.0 °F 61% 29.82 in 10.0 mi Calm Calm - N/A   Clear
11:53 AM 35.1 °F 32.2 °F 19.0 °F 52% 29.79 in 10.0 mi WSW 3.5 mph - N/A   Clear
12:53 PM 37.9 °F - 21.0 °F 51% 29.76 in 10.0 mi Calm Calm - N/A   Clear
1:53 PM 39.0 °F - 21.0 °F 49% 29.75 in 10.0 mi Calm Calm - N/A   Mostly Cloudy
2:53 PM 42.1 °F 37.7 °F 19.9 °F 41% 29.74 in 10.0 mi SW 6.9 mph - N/A   Partly Cloudy
3:53 PM 42.1 °F 39.2 °F 19.9 °F 41% 29.72 in 10.0 mi SW 4.6 mph - N/A   Clear
4:53 PM 37.9 °F 33.5 °F 21.9 °F 53% 29.74 in 10.0 mi SSW 5.8 mph - N/A   Clear
5:53 PM 30.9 °F 25.2 °F 21.0 °F 67% 29.76 in 10.0 mi SE 5.8 mph - N/A   Clear
6:53 PM 30.0 °F 25.2 °F 21.0 °F 69% 29.78 in 10.0 mi SE 4.6 mph - N/A   Partly Cloudy
7:53 PM 35.1 °F 28.6 °F 26.1 °F 70% 29.79 in 7.0 mi SSW 8.1 mph 17.3 mph 0.00 in Snow Light Snow
8:53 PM 28.9 °F 25.2 °F 24.1 °F 82% 29.78 in 10.0 mi SE 3.5 mph - 0.00 in   Scattered Clouds
9:53 PM 28.0 °F - 25.0 °F 88% 29.78 in 10.0 mi Calm Calm - N/A   Clear
10:53 PM 27.0 °F 20.5 °F 25.0 °F 92% 29.77 in 10.0 mi SW 5.8 mph - N/A   Clear
11:53 PM 26.1 °F 16.8 °F 23.0 °F 88% 29.76 in 10.0 mi West 9.2 mph - N/A   Clear